Project,Study,Ord_Occ,Event_Num,Cast_ID,Date_Time_UTC,Date_Time_PST,Lat_Dec,Lon_Dec,Sta_ID,Line,Sta,Depth,Pressure,PrQ,Temp1,Temp1Q,Temp2,Temp2Q,TempAve,Salt1,Salt1Q,Salt1_Corr,Salt2,Salt2Q,Salt2_Corr,SaltAve_Corr,Ox1,Ox1Q,Ox1_CruiseCorr,Ox1_StaCorr,Ox2,Ox2Q,Ox2_CruiseCorr,Ox2_StaCorr,OxAve_StaCorr,Ox1uM,Ox1uM_CruiseCorr,Ox1uM_StaCorr,Ox2uM,Ox2uM_CruiseCorr,Ox2uM_StaCorr,OxAveuM_StaCorr,FluorV,FluorQ,EstChl_CruiseCorr,EstChl_StaCorr,ISUSV,ISUSQ,EstNO3_CruiseCorr,EstNO3_StaCorr,SigThetaTS1,SigThetaTS1Q,SigThetaTS2,SigThetaTS2Q,BAT,XMiss,TransQ,pH,pHQ,SPAR,SPARQ,PAR,PARQ,PoT1,PoT2,DynHt,SVA,OxSat1,OxSat2,BTL_Depth,BTL_Temp,SaltB,OxB,OxBuM,Chl-a,Phaeo,NO3,NO2,NH4,PO4,SIL
CalCOFI,2105SH,002,,2105_002u,04-May-2021 21:02:15,04-May-2021 13:02:15,32.91048,-117.39482,093.3 028.0,093.3,028.0,515.000,519.304,,6.5249,,6.5249,,6.5249,34.3265,,34.3277,34.3274,,34.3293,34.3285,0.2628,,0.3409,0.3755,0.2678,,0.3368,0.3762,0.3759,11.426,14.4435,19.4733,11.648,17.4686,19.5233,19.4983,0.0409,,,,0.5852,,0.0000,,26.9587,,26.9594,,,,,,,,,,,6.4775,6.4775,0.8403,116.608,3.833,3.907,515,6.525,34.3399,0.388,16.87,,,39.85,0.00,0.00,3.19,69.86
CalCOFI,2105SH,002,,2105_002u,04-May-2021 21:02:27,04-May-2021 13:02:27,32.91045,-117.39482,093.3 028.0,093.3,028.0,514.000,518.294,,6.5301,,6.5301,,6.5301,34.3263,,34.3275,34.3271,,34.3290,34.3283,0.2613,,0.3394,0.3740,0.2685,,0.3375,0.3769,0.3755,11.363,14.3777,19.4288,11.678,17.4006,19.5444,19.4866,0.0417,,,,0.5851,,0.0000,,26.9578,,26.9585,,,,,,,,,,,6.4829,6.4828,0.8407,116.683,3.811,3.918,,,,,,,,,,,,
CalCOFI,2105SH,002,,2105_002u,04-May-2021 21:02:31,04-May-2021 13:02:31,32.91044,-117.39482,093.3 028.0,093.3,028.0,513.000,517.285,,6.5321,,6.5312,,6.5317,34.3257,,34.3269,34.3267,,34.3286,34.3278,0.2675,,0.3459,0.3805,0.2702,,0.3393,0.3787,0.3796,11.633,14.6599,19.6197,11.750,17.6922,19.5949,19.6073,0.0414,,,,0.5852,,0.0000,,26.9571,,26.9580,,,,,,,,,,,6.4849,6.4840,0.8413,116.735,3.902,3.942,,,,,,,,,,,,
CalCOFI,2105SH,002,,2105_002u,04-May-2021 21:02:32,04-May-2021 13:02:32,32.91044,-117.39482,093.3 028.0,093.3,028.0,512.000,516.275,,6.5316,,6.5311,,6.5314,34.3256,,34.3268,34.3264,,34.3283,34.3276,0.2643,,0.3425,0.3771,0.2713,,0.3404,0.3798,0.3785,11.492,14.5125,19.5200,11.797,17.5399,19.6279,19.5740,0.0409,,,,0.5853,,0.0000,,26.9571,,26.9578,,,,,,,,,,,6.4845,6.4840,0.8413,116.723,3.855,3.958,,,,,,,,,,,,
CalCOFI,2105SH,002,,2105_002u,04-May-2021 21:02:33,04-May-2021 13:02:33,32.91043,-117.39482,093.3 028.0,093.3,028.0,511.000,515.265,,6.5303,,6.5309,,6.5306,34.3249,,34.3261,34.3261,,34.3280,34.3271,0.2647,,0.3429,0.3775,0.2743,,0.3435,0.3829,0.3802,11.509,14.5303,19.5320,11.929,17.5583,19.7206,19.6263,0.0414,,,,0.5853,,0.0000,,26.9567,,26.9576,,,,,,,,,,,6.4833,6.4839,0.8413,116.747,3.861,4.002,,,,,,,,,,,,
CalCOFI,2105SH,002,,2105_002u,04-May-2021 21:02:34,04-May-2021 13:02:34,32.91042,-117.39482,093.3 028.0,093.3,028.0,510.000,514.256,,6.5306,,6.5307,,6.5307,34.3247,,34.3259,34.3259,,34.3278,34.3269,0.2646,,0.3428,0.3774,0.2749,,0.3441,0.3835,0.3805,11.506,14.5272,19.5299,11.957,17.5550,19.7403,19.6351,0.0410,,,,0.5854,,0.0000,,26.9564,,26.9574,,,,,,,,,,,6.4837,6.4838,0.8413,116.754,3.860,4.011,,,,,,,,,,,,
CalCOFI,2105SH,002,,2105_002u,04-May-2021 21:02:35,04-May-2021 13:02:35,32.91042,-117.39482,093.3 028.0,093.3,028.0,509.000,513.246,,6.5307,,6.5305,,6.5306,34.3247,,34.3259,34.3255,,34.3274,34.3267,0.2645,,0.3427,0.3773,0.2719,,0.3410,0.3804,0.3789,11.503,14.5240,19.5278,11.822,17.5518,19.6455,19.5867,0.0417,,,,0.5855,,0.0000,,26.9565,,26.9571,,,,,,,,,,,6.4839,6.4837,0.8413,116.733,3.859,3.966,,,,,,,,,,,,
CalCOFI,2105SH,002,,2105_002u,04-May-2021 21:02:36,04-May-2021 13:02:36,32.91042,-117.39483,093.3 028.0,093.3,028.0,508.000,512.237,,6.5314,,6.5317,,6.5316,34.3244,,34.3256,34.3255,,34.3274,34.3265,0.2645,,0.3427,0.3773,0.2718,,0.3409,0.3803,0.3788,11.501,14.5219,19.5264,11.822,17.5496,19.6455,19.5860,0.0420,,,,0.5856,,0.0000,,26.9561,,26.9569,,,,,,,,,,,6.4847,6.4850,0.8413,116.753,3.858,3.966,,,,,,,,,,,,
CalCOFI,2105SH,002,,2105_002u,04-May-2021 21:02:37,04-May-2021 13:02:37,32.91042,-117.39484,093.3 028.0,093.3,028.0,507.000,511.227,,6.5332,,6.5359,,6.5346,34.3237,,34.3249,34.3243,,34.3262,34.3256,0.2688,,0.3472,0.3818,0.2718,,0.3409,0.3803,0.3811,11.690,14.7195,19.6601,11.819,17.7537,19.6434,19.6518,0.0415,,,,0.5857,,0.0000,,26.9554,,26.9554,,,,,,,,,,,6.4865,6.4892,0.8413,116.813,3.922,3.965,,,,,,,,,,,,
CalCOFI,2105SH,002,,2105_002u,04-May-2021 21:02:38,04-May-2021 13:02:38,32.91042,-117.39484,093.3 028.0,093.3,028.0,506.000,510.217,,6.5385,,6.5376,,6.5381,34.3221,,34.3233,34.3240,,34.3259,34.3246,0.2751,,0.3538,0.3884,0.2720,,0.3411,0.3805,0.3845,11.961,15.0028,19.8518,11.828,18.0464,19.6497,19.7508,0.0416,,,,0.5858,,0.0000,,26.9534,,26.9549,,,,,,,,,,,6.4919,6.4911,0.8413,116.991,4.013,3.969,,,,,,,,,,,,
CalCOFI,2105SH,002,,2105_002u,04-May-2021 21:02:38,04-May-2021 13:02:38,32.91042,-117.39484,093.3 028.0,093.3,028.0,505.000,509.208,,6.5697,,6.5454,,6.5576,34.3182,,34.3194,34.3239,,34.3258,34.3226,0.2722,,0.3508,0.3854,0.2781,,0.3475,0.3869,0.3862,11.836,14.8722,19.7633,12.093,17.9114,19.8358,19.7996,0.0410,,,,0.5860,,0.0000,,26.9461,,26.9538,,,,,,,,,,,6.5231,6.4989,0.8413,117.697,3.974,4.058,,,,,,,,,,,,
CalCOFI,2105SH,002,,2105_002u,04-May-2021 21:02:39,04-May-2021 13:02:39,32.91042,-117.39484,093.3 028.0,093.3,028.0,504.000,508.198,,6.5701,,6.5549,,6.5625,34.3209,,34.3221,34.3234,,34.3253,34.3237,0.2717,,0.3502,0.3849,0.2828,,0.3523,0.3917,0.3883,11.816,14.8512,19.7492,12.297,17.8898,19.9791,19.8642,0.0418,,,,0.5861,,0.0000,,26.9482,,26.9521,,,,,,,,,,,6.5236,6.5085,0.8413,117.484,3.967,4.128,,,,,,,,,,,,
CalCOFI,2105SH,002,,2105_002u,04-May-2021 21:02:40,04-May-2021 13:02:40,32.91042,-117.39484,093.3 028.0,093.3,028.0,503.000,507.189,,6.5932,,6.5884,,6.5908,34.3191,,34.3203,34.3229,,34.3248,34.3226,0.2782,,0.3570,0.3917,0.2775,,0.3468,0.3862,0.3890,12.097,15.1450,19.9480,12.068,18.1933,19.8183,19.8832,0.0416,,,,0.5863,,0.0000,,26.9437,,26.9474,,,,,,,,,,,6.5467,6.5420,0.8413,117.915,4.064,4.053,,,,,,,,,,,,
CalCOFI,2105SH,002,,2105_002u,04-May-2021 21:02:41,04-May-2021 13:02:41,32.91042,-117.39484,093.3 028.0,093.3,028.0,502.000,506.179,,6.6027,,6.6017,,6.6022,34.3191,,34.3203,34.3232,,34.3251,34.3227,0.2738,,0.3524,0.3871,0.2854,,0.3550,0.3944,0.3908,11.906,14.9453,19.8129,12.413,17.9870,20.0605,19.9367,0.0415,,,,0.5866,,0.0000,,26.9425,,26.9458,,,,,,,,,,,6.5563,6.5553,0.8413,118.031,4.000,4.171,,,,,,,,,,,,
CalCOFI,2105SH,002,,2105_002u,04-May-2021 21:02:42,04-May-2021 13:02:42,32.91041,-117.39484,093.3 028.0,093.3,028.0,501.000,505.170,,6.6074,,6.6071,,6.6073,34.3197,,34.3209,34.3222,,34.3241,34.3225,0.2729,,0.3515,0.3861,0.2826,,0.3521,0.3915,0.3888,11.870,14.9077,19.7874,12.288,17.9481,19.9728,19.8801,0.0408,,,,0.5869,,0.0000,,26.9423,,26.9442,,,,,,,,,,,6.5611,6.5608,0.8413,118.040,3.989,4.129,,,,,,,,,,,,
CalCOFI,2105SH,002,,2105_002u,04-May-2021 21:02:43,04-May-2021 13:02:43,32.91040,-117.39484,093.3 028.0,093.3,028.0,500.000,504.160,,6.6038,,6.6029,,6.6034,34.3213,,34.3225,34.3215,,34.3234,34.3230,0.2730,,0.3516,0.3862,0.2798,,0.3492,0.3886,0.3874,11.870,14.9077,19.7874,12.167,17.9481,19.8878,19.8376,0.0412,,,,0.5871,,0.0000,,26.9440,,26.9443,,,,,,,,,,,6.5576,6.5567,0.8413,117.856,3.989,4.088,,,,,,,,,,,,
CalCOFI,2105SH,002,,2105_002u,04-May-2021 21:02:44,04-May-2021 13:02:44,32.91040,-117.39484,093.3 028.0,093.3,028.0,499.000,503.151,,6.6012,,6.5982,,6.5997,34.3211,,34.3223,34.3227,,34.3246,34.3235,0.2740,,0.3526,0.3873,0.2798,,0.3492,0.3886,0.3880,11.917,14.9568,19.8206,12.167,17.9989,19.8878,19.8542,0.0414,,,,0.5874,,0.0000,,26.9442,,26.9458,,,,,,,,,,,6.5550,6.5521,0.8413,117.820,4.004,4.088,,,,,,,,,,,,
CalCOFI,2105SH,002,,2105_002u,04-May-2021 21:02:45,04-May-2021 13:02:45,32.91040,-117.39484,093.3 028.0,093.3,028.0,498.000,502.141,,6.6194,,6.6139,,6.6167,34.3191,,34.3203,34.3218,,34.3237,34.3220,0.2795,,0.3584,0.3930,0.2796,,0.3490,0.3884,0.3907,12.156,15.2067,19.9897,12.160,18.2570,19.8829,19.9363,0.0415,,,,0.5876,,0.0000,,26.9402,,26.9431,,,,,,,,,,,6.5733,6.5678,0.8413,118.203,4.086,4.087,,,,,,,,,,,,
CalCOFI,2105SH,002,,2105_002u,04-May-2021 21:02:45,04-May-2021 13:02:45,32.91040,-117.39484,093.3 028.0,093.3,028.0,497.000,501.131,,6.6350,,6.6185,,6.6268,34.3177,,34.3189,34.3213,,34.3232,34.3211,0.2836,,0.3627,0.3973,0.2839,,0.3535,0.3929,0.3951,12.334,15.3928,20.1156,12.349,18.4493,20.0156,20.0656,0.0414,,,,0.5878,,0.0000,,26.9370,,26.9420,,,,,,,,,,,6.5889,6.5725,0.8413,118.509,4.147,4.151,,,,,,,,,,,,
CalCOFI,2105SH,002,,2105_002u,04-May-2021 21:02:46,04-May-2021 13:02:46,32.91040,-117.39484,093.3 028.0,093.3,028.0,496.000,500.122,,6.6463,,6.6160,,6.6312,34.3211,,34.3223,34.3240,,34.3259,34.3241,0.2836,,0.3627,0.3973,0.2902,,0.3600,0.3994,0.3984,12.334,15.3928,20.1156,12.620,18.4493,20.2059,20.1608,0.0405,,,,0.5881,,0.0000,,26.9382,,26.9444,,,,,,,,,,,6.6003,6.5701,0.8413,118.396,4.149,4.242,,,,,,,,,,,,
CalCOFI,2105SH,002,,2105_002u,04-May-2021 21:02:47,04-May-2021 13:02:47,32.91040,-117.39484,093.3 028.0,093.3,028.0,495.000,499.112,,6.6679,,6.6313,,6.6496,34.3171,,34.3183,34.3255,,34.3274,34.3229,0.2880,,0.3673,0.4019,0.2902,,0.3600,0.3994,0.4007,12.526,15.5935,20.2514,12.621,18.6566,20.2066,20.2290,0.0413,,,,0.5883,,0.0000,,26.9321,,26.9436,,,,,,,,,,,6.6219,6.5855,0.8413,118.973,4.215,4.244,,,,,,,,,,,,
CalCOFI,2105SH,002,,2105_002u,04-May-2021 21:02:48,04-May-2021 13:02:48,32.91040,-117.39484,093.3 028.0,093.3,028.0,494.000,498.103,,6.6868,,6.6714,,6.6791,34.3180,,34.3192,34.3224,,34.3243,34.3218,0.2846,,0.3637,0.3983,0.2929,,0.3628,0.4022,0.4003,12.378,15.4388,20.1467,12.740,18.4968,20.2902,20.2185,0.0411,,,,0.5886,,0.0000,,26.9303,,26.9359,,,,,,,,,,,6.6408,6.6255,0.8413,119.152,4.167,4.287,,,,,,,,,,,,
CalCOFI,2105SH,002,,2105_002u,04-May-2021 21:02:48,04-May-2021 13:02:48,32.91038,-117.39484,093.3 028.0,093.3,028.0,493.000,497.093,,6.6954,,6.6831,,6.6893,34.3179,,34.3191,34.3218,,34.3237,34.3214,0.2898,,0.3692,0.4038,0.2916,,0.3614,0.4008,0.4023,12.605,15.6761,20.3073,12.680,18.7419,20.2481,20.2777,0.0405,,,,0.5889,,0.0000,,26.9291,,26.9338,,,,,,,,,,,6.6495,6.6372,0.8413,119.262,4.244,4.269,,,,,,,,,,,,
CalCOFI,2105SH,002,,2105_002u,04-May-2021 21:02:49,04-May-2021 13:02:49,32.91038,-117.39484,093.3 028.0,093.3,028.0,492.000,496.084,,6.7133,,6.7054,,6.7094,34.3178,,34.3190,34.3207,,34.3226,34.3208,0.2881,,0.3674,0.4020,0.2892,,0.3590,0.3984,0.4002,12.531,15.5987,20.2550,12.575,18.6620,20.1743,20.2147,0.0412,,,,0.5893,,0.0000,,26.9266,,26.9299,,,,,,,,,,,6.6675,6.6596,0.8413,119.503,4.221,4.235,,,,,,,,,,,,
CalCOFI,2105SH,002,,2105_002u,04-May-2021 21:02:50,04-May-2021 13:02:50,32.91038,-117.39484,093.3 028.0,093.3,028.0,491.000,495.074,,6.7123,,6.7033,,6.7078,34.3184,,34.3196,34.3212,,34.3231,34.3214,0.2855,,0.3647,0.3993,0.2982,,0.3683,0.4077,0.4035,12.418,15.4806,20.1750,12.970,18.5400,20.4517,20.3134,0.0419,,,,0.5898,,0.0000,,26.9272,,26.9306,,,,,,,,,,,6.6665,6.6576,0.8413,119.430,4.183,4.368,,,,,,,,,,,,
CalCOFI,2105SH,002,,2105_002u,04-May-2021 21:02:52,04-May-2021 13:02:52,32.91038,-117.39484,093.3 028.0,093.3,028.0,490.000,494.065,,6.7082,,6.7082,,6.7082,34.3196,,34.3208,34.3208,,34.3227,34.3218,0.2871,,0.3663,0.4010,0.2936,,0.3635,0.4029,0.4020,12.485,15.5506,20.2224,12.767,18.6123,20.3092,20.2658,0.0416,,,,0.5902,,0.0000,,26.9286,,26.9296,,,,,,,,,,,6.6625,6.6625,0.8413,119.273,4.205,4.300,,,,,,,,,,,,
CalCOFI,2105SH,002,,2105_002u,04-May-2021 21:02:53,04-May-2021 13:02:53,32.91038,-117.39484,093.3 028.0,093.3,028.0,489.000,493.055,,6.7062,,6.7050,,6.7056,34.3184,,34.3196,34.3202,,34.3221,34.3209,0.2928,,0.3723,0.4069,0.2995,,0.3696,0.4090,0.4080,12.733,15.8099,20.3978,13.025,18.8802,20.4903,20.4441,0.0416,,,,0.5907,,0.0000,,26.9279,,26.9296,,,,,,,,,,,6.6606,6.6594,0.8413,119.317,4.288,4.387,,,,,,,,,,,,
CalCOFI,2105SH,002,,2105_002u,04-May-2021 21:02:53,04-May-2021 13:02:53,32.91036,-117.39484,093.3 028.0,093.3,028.0,488.000,492.046,,6.7199,,6.7229,,6.7214,34.3193,,34.3205,34.3206,,34.3225,34.3215,0.2930,,0.3725,0.4071,0.3006,,0.3708,0.4102,0.4087,12.742,15.8193,20.4042,13.071,18.8899,20.5226,20.4634,0.0412,,,,0.5911,,0.0000,,26.9269,,26.9275,,,,,,,,,,,6.6743,6.6774,0.8413,119.422,4.293,4.404,,,,,,,,,,,,
CalCOFI,2105SH,002,,2105_002u,04-May-2021 21:02:54,04-May-2021 13:02:54,32.91036,-117.39486,093.3 028.0,093.3,028.0,487.000,491.036,,6.7364,,6.7394,,6.7379,34.3158,,34.3170,34.3185,,34.3204,34.3187,0.2902,,0.3696,0.4042,0.2955,,0.3655,0.4049,0.4046,12.619,15.6907,20.3172,12.849,18.7571,20.3667,20.3420,0.0414,,,,0.5915,,0.0000,,26.9218,,26.9236,,,,,,,,,,,6.6910,6.6939,0.8413,119.895,4.253,4.331,,,,,,,,,,,,
CalCOFI,2105SH,002,,2105_002u,04-May-2021 21:02:55,04-May-2021 13:02:55,32.91036,-117.39486,093.3 028.0,093.3,028.0,486.000,490.027,,6.7436,,6.7703,,6.7570,34.3168,,34.3180,34.3182,,34.3201,34.3191,0.2958,,0.3754,0.4101,0.3016,,0.3718,0.4112,0.4107,12.863,15.9458,20.4898,13.114,19.0206,20.5528,20.5213,0.0410,,,,0.5919,,0.0000,,26.9216,,26.9192,,,,,,,,,,,6.6982,6.7248,0.8413,119.908,4.336,4.423,,,,,,,,,,,,
CalCOFI,2105SH,002,,2105_002u,04-May-2021 21:02:56,04-May-2021 13:02:56,32.91036,-117.39486,093.3 028.0,093.3,028.0,485.000,489.017,,6.7573,,6.7701,,6.7637,34.3148,,34.3160,34.3153,,34.3172,34.3166,0.3004,,0.3803,0.4149,0.3066,,0.3770,0.4164,0.4157,13.065,16.1570,20.6327,13.335,19.2387,20.7080,20.6704,0.0414,,,,0.5923,,0.0000,,26.9182,,26.9169,,,,,,,,,,,6.7119,6.7247,0.8413,120.229,4.405,4.498,,,,,,,,,,,,
CalCOFI,2105SH,002,,2105_002u,04-May-2021 21:02:57,04-May-2021 13:02:57,32.91036,-117.39486,093.3 028.0,093.3,028.0,484.000,488.008,,6.7653,,6.7486,,6.7570,34.3144,,34.3156,34.3194,,34.3213,34.3185,0.3006,,0.3805,0.4151,0.3033,,0.3736,0.4130,0.4141,13.071,16.1632,20.6369,13.190,19.2452,20.6062,20.6216,0.0419,,,,0.5927,,0.0000,,26.9168,,26.9230,,,,,,,,,,,6.7200,6.7034,0.8413,120.358,4.408,4.447,,,,,,,,,,,,
CalCOFI,2105SH,002,,2105_002u,04-May-2021 21:02:57,04-May-2021 13:02:57,32.91036,-117.39486,093.3 028.0,093.3,028.0,483.000,486.998,,6.7941,,6.7655,,6.7798,34.3129,,34.3141,34.3211,,34.3230,34.3186,0.3045,,0.3845,0.4192,0.3090,,0.3795,0.4189,0.4191,13.241,16.3409,20.7572,13.440,19.4288,20.7818,20.7695,0.0405,,,,0.5930,,0.0000,,26.9118,,26.9221,,,,,,,,,,,6.7488,6.7203,0.8413,120.847,4.468,4.533,,,,,,,,,,,,
CalCOFI,2105SH,002,,2105_002u,04-May-2021 21:02:58,04-May-2021 13:02:58,32.91036,-117.39486,093.3 028.0,093.3,028.0,482.000,485.989,,6.8124,,6.7916,,6.8020,34.3157,,34.3169,34.3202,,34.3221,34.3195,0.3006,,0.3805,0.4151,0.3065,,0.3769,0.4163,0.4157,13.071,16.1632,20.6369,13.331,19.2452,20.7052,20.6711,0.0418,,,,0.5935,,0.0000,,26.9115,,26.9178,,,,,,,,,,,6.7671,6.7464,0.8413,120.880,4.413,4.499,,,,,,,,,,,,
CalCOFI,2105SH,002,,2105_002u,04-May-2021 21:02:59,04-May-2021 13:02:59,32.91035,-117.39486,093.3 028.0,093.3,028.0,481.000,484.980,,6.8341,,6.8063,,6.8202,34.3156,,34.3168,34.3192,,34.3211,34.3190,0.3070,,0.3872,0.4218,0.3071,,0.3775,0.4169,0.4194,13.350,16.4549,20.8343,13.358,19.5465,20.7242,20.7793,0.0417,,,,0.5939,,0.0000,,26.9085,,26.9150,,,,,,,,,,,6.7888,6.7612,0.8413,121.170,4.510,4.509,,,,,,,,,,,,
CalCOFI,2105SH,002,,2105_002u,04-May-2021 21:03:00,04-May-2021 13:03:00,32.91034,-117.39486,093.3 028.0,093.3,028.0,480.000,483.970,,6.8276,,6.8211,,6.8244,34.3162,,34.3174,34.3198,,34.3217,34.3196,0.3034,,0.3834,0.4180,0.3133,,0.3839,0.4233,0.4207,13.197,16.2949,20.7261,13.624,19.3813,20.9110,20.8186,0.0409,,,,0.5944,,0.0000,,26.9098,,26.9135,,,,,,,,,,,6.7824,6.7760,0.8413,121.023,4.457,4.601,,,,,,,,,,,,
CalCOFI,2105SH,002,,2105_002u,04-May-2021 21:03:01,04-May-2021 13:03:01,32.91034,-117.39486,093.3 028.0,093.3,028.0,479.000,482.961,,6.8277,,6.8302,,6.8290,34.3184,,34.3196,34.3182,,34.3201,34.3199,0.3022,,0.3821,0.4168,0.3086,,0.3790,0.4184,0.4176,13.143,16.2385,20.6879,13.420,19.3230,20.7677,20.7278,0.0418,,,,0.5948,,0.0000,,26.9115,,26.9110,,,,,,,,,,,6.7826,6.7851,0.8413,120.848,4.439,4.533,,,,,,,,,,,,
CalCOFI,2105SH,002,,2105_002u,04-May-2021 21:03:02,04-May-2021 13:03:02,32.91034,-117.39486,093.3 028.0,093.3,028.0,478.000,481.951,,6.8320,,6.8324,,6.8322,34.3155,,34.3167,34.3183,,34.3202,34.3185,0.3021,,0.3820,0.4167,0.3070,,0.3774,0.4168,0.4168,13.140,16.2354,20.6857,13.353,19.3197,20.7207,20.7032,0.0408,,,,0.5952,,0.0000,,26.9087,,26.9108,,,,,,,,,,,6.7870,6.7874,0.8413,121.105,4.438,4.510,,,,,,,,,,,,
CalCOFI,2105SH,002,,2105_002u,04-May-2021 21:03:03,04-May-2021 13:03:03,32.91034,-117.39486,093.3 028.0,093.3,028.0,477.000,480.942,,6.8656,,6.8675,,6.8666,34.3206,,34.3218,34.3252,,34.3271,34.3245,0.3018,,0.3817,0.4163,0.3067,,0.3771,0.4165,0.4164,13.126,16.2207,20.6758,13.338,19.3046,20.7102,20.6930,0.0408,,,,0.5956,,0.0000,,26.9081,,26.9115,,,,,,,,,,,6.8206,6.8225,0.8413,121.180,4.437,4.509,,,,,,,,,,,,
CalCOFI,2105SH,002,,2105_002u,04-May-2021 21:03:05,04-May-2021 13:03:05,32.91034,-117.39486,093.3 028.0,093.3,028.0,476.000,479.932,,6.8737,,6.8731,,6.8734,34.3190,,34.3202,34.3237,,34.3256,34.3229,0.3017,,0.3816,0.4162,0.3066,,0.3770,0.4164,0.4163,13.122,16.2165,20.6730,13.335,19.3003,20.7080,20.6905,0.0411,,,,0.5960,,0.0000,,26.9058,,26.9095,,,,,,,,,,,6.8288,6.8282,0.8413,121.394,4.437,4.508,,,,,,,,,,,,
CalCOFI,2105SH,002,,2105_002u,04-May-2021 21:03:06,04-May-2021 13:03:06,32.91034,-117.39486,093.3 028.0,093.3,028.0,475.000,478.923,,6.8600,,6.8605,,6.8603,34.3192,,34.3204,34.3203,,34.3222,34.3213,0.3018,,0.3817,0.4163,0.3067,,0.3771,0.4165,0.4164,13.125,16.2197,20.6751,13.337,19.3035,20.7095,20.6923,0.0409,,,,0.5963,,0.0000,,26.9077,,26.9085,,,,,,,,,,,6.8153,6.8157,0.8413,121.175,4.436,4.508,,,,,,,,,,,,
CalCOFI,2105SH,002,,2105_002u,04-May-2021 21:03:07,04-May-2021 13:03:07,32.91034,-117.39486,093.3 028.0,093.3,028.0,474.000,477.914,,6.8736,,6.8766,,6.8751,34.3174,,34.3186,34.3207,,34.3226,34.3206,0.3017,,0.3816,0.4162,0.3065,,0.3769,0.4163,0.4163,13.119,16.2134,20.6709,13.330,19.2971,20.7045,20.6877,0.0409,,,,0.5965,,0.0000,,26.9045,,26.9066,,,,,,,,,,,6.8289,6.8319,0.8413,121.484,4.435,4.507,,,,,,,,,,,,
CalCOFI,2105SH,002,,2105_002u,04-May-2021 21:03:07,04-May-2021 13:03:07,32.91032,-117.39486,093.3 028.0,093.3,028.0,473.000,476.904,,6.9076,,6.9093,,6.9085,34.3198,,34.3210,34.3203,,34.3222,34.3216,0.3014,,0.3813,0.4159,0.3094,,0.3799,0.4193,0.4176,13.106,16.1998,20.6617,13.458,19.2830,20.7944,20.7281,0.0408,,,,0.5968,,0.0000,,26.9018,,26.9018,,,,,,,,,,,6.8629,6.8646,0.8413,121.759,4.434,4.554,,,,,,,,,,,,
CalCOFI,2105SH,002,,2105_002u,04-May-2021 21:03:08,04-May-2021 13:03:08,32.91032,-117.39487,093.3 028.0,093.3,028.0,472.000,475.895,,6.9400,,6.9047,,6.9224,34.3222,,34.3234,34.3262,,34.3281,34.3258,0.3019,,0.3818,0.4164,0.3168,,0.3875,0.4269,0.4217,13.131,16.2259,20.6794,13.778,19.3100,21.0192,20.8493,0.0420,,,,0.5970,,0.0000,,26.8992,,26.9072,,,,,,,,,,,6.8952,6.8601,0.8413,122.023,4.446,4.662,,,,,,,,,,,,
CalCOFI,2105SH,002,,2105_002u,04-May-2021 21:03:09,04-May-2021 13:03:09,32.91032,-117.39487,093.3 028.0,093.3,028.0,471.000,474.885,,6.9192,,6.9295,,6.9244,34.3250,,34.3262,34.3246,,34.3265,34.3264,0.3093,,0.3896,0.4242,0.3118,,0.3824,0.4218,0.4230,13.450,16.5594,20.9050,13.559,19.6545,20.8654,20.8852,0.0415,,,,0.5973,,0.0000,,26.9042,,26.9025,,,,,,,,,,,6.8746,6.8849,0.8413,121.512,4.552,4.590,,,,,,,,,,,,
CalCOFI,2105SH,002,,2105_002u,04-May-2021 21:03:10,04-May-2021 13:03:10,32.91032,-117.39487,093.3 028.0,093.3,028.0,470.000,473.876,,6.9476,,6.9721,,6.9599,34.3248,,34.3260,34.3274,,34.3293,34.3277,0.3080,,0.3882,0.4228,0.3097,,0.3802,0.4196,0.4212,13.393,16.4998,20.8647,13.470,19.5930,20.8029,20.8338,0.0415,,,,0.5975,,0.0000,,26.9002,,26.8989,,,,,,,,,,,6.9030,6.9274,0.8413,121.905,4.536,4.565,,,,,,,,,,,,
CalCOFI,2105SH,002,,2105_002u,04-May-2021 21:03:11,04-May-2021 13:03:11,32.91032,-117.39488,093.3 028.0,093.3,028.0,469.000,472.867,,6.9612,,6.9677,,6.9645,34.3233,,34.3245,34.3277,,34.3296,34.3271,0.3052,,0.3853,0.4199,0.3105,,0.3810,0.4204,0.4202,13.271,16.3723,20.7784,13.505,19.4612,20.8274,20.8029,0.0412,,,,0.5977,,0.0000,,26.8971,,26.8997,,,,,,,,,,,6.9167,6.9232,0.8413,122.191,4.496,4.576,,,,,,,,,,,,
CalCOFI,2105SH,002,,2105_002u,04-May-2021 21:03:12,04-May-2021 13:03:12,32.91032,-117.39488,093.3 028.0,093.3,028.0,468.000,471.857,,6.9624,,6.9579,,6.9602,34.3251,,34.3263,34.3260,,34.3279,34.3271,0.3069,,0.3871,0.4217,0.3150,,0.3857,0.4251,0.4234,13.346,16.4507,20.8315,13.700,19.5422,20.9644,20.8980,0.0401,,,,0.5980,,0.0000,,26.8983,,26.8997,,,,,,,,,,,6.9180,6.9135,0.8413,122.061,4.521,4.641,,,,,,,,,,,,
CalCOFI,2105SH,002,,2105_002u,04-May-2021 21:03:13,04-May-2021 13:03:13,32.91031,-117.39488,093.3 028.0,093.3,028.0,467.000,470.848,,6.9737,,6.9748,,6.9743,34.3224,,34.3236,34.3260,,34.3279,34.3258,0.3129,,0.3933,0.4280,0.3170,,0.3877,0.4271,0.4276,13.608,16.7246,21.0168,13.785,19.8252,21.0241,21.0205,0.0418,,,,0.5982,,0.0000,,26.8947,,26.8974,,,,,,,,,,,6.9293,6.9304,0.8413,122.402,4.611,4.671,,,,,,,,,,,,
CalCOFI,2105SH,002,,2105_002u,04-May-2021 21:03:14,04-May-2021 13:03:14,32.91030,-117.39488,093.3 028.0,093.3,028.0,466.000,469.838,,6.9854,,6.9794,,6.9824,34.3233,,34.3245,34.3246,,34.3265,34.3255,0.3139,,0.3944,0.4290,0.3169,,0.3876,0.4270,0.4280,13.653,16.7716,21.0486,13.783,19.8738,21.0227,21.0357,0.0411,,,,0.5985,,0.0000,,26.8937,,26.8956,,,,,,,,,,,6.9411,6.9351,0.8413,122.486,4.628,4.671,,,,,,,,,,,,
CalCOFI,2105SH,002,,2105_002u,04-May-2021 21:03:15,04-May-2021 13:03:15,32.91030,-117.39488,093.3 028.0,093.3,028.0,465.000,468.829,,6.9831,,6.9724,,6.9778,34.3247,,34.3259,34.3273,,34.3292,34.3276,0.3097,,0.3900,0.4246,0.3197,,0.3905,0.4299,0.4273,13.466,16.5762,20.9163,13.902,19.6718,21.1062,21.0113,0.0409,,,,0.5988,,0.0000,,26.8952,,26.8987,,,,,,,,,,,6.9388,6.9282,0.8413,122.331,4.564,4.711,,,,,,,,,,,,
CalCOFI,2105SH,002,,2105_002u,04-May-2021 21:03:16,04-May-2021 13:03:16,32.91030,-117.39488,093.3 028.0,093.3,028.0,464.000,467.820,,6.9796,,6.9883,,6.9840,34.3250,,34.3262,34.3281,,34.3300,34.3281,0.3107,,0.3910,0.4257,0.3263,,0.3974,0.4368,0.4313,13.511,16.6232,20.9482,14.192,19.7204,21.3099,21.1291,0.0413,,,,0.5991,,0.0000,,26.8959,,26.8971,,,,,,,,,,,6.9355,6.9442,0.8413,122.249,4.579,4.811,,,,,,,,,,,,
CalCOFI,2105SH,002,,2105_002u,04-May-2021 21:03:17,04-May-2021 13:03:17,32.91030,-117.39488,093.3 028.0,093.3,028.0,463.000,466.810,,6.9826,,7.0088,,6.9957,34.3240,,34.3252,34.3263,,34.3282,34.3267,0.3184,,0.3991,0.4337,0.3281,,0.3992,0.4386,0.4362,13.846,16.9734,21.1851,14.270,20.0822,21.3647,21.2749,0.0412,,,,0.5995,,0.0000,,26.8947,,26.8929,,,,,,,,,,,6.9385,6.9647,0.8413,122.350,4.693,4.840,,,,,,,,,,,,
CalCOFI,2105SH,002,,2105_002u,04-May-2021 21:03:18,04-May-2021 13:03:18,32.91030,-117.39488,093.3 028.0,093.3,028.0,462.000,465.801,,7.0064,,7.0235,,7.0150,34.3225,,34.3237,34.3249,,34.3268,34.3253,0.3245,,0.4055,0.4401,0.3334,,0.4047,0.4441,0.4421,14.115,17.2546,21.3754,14.501,20.3727,21.5269,21.4512,0.0413,,,,0.6001,,0.0000,,26.8902,,26.8898,,,,,,,,,,,6.9624,6.9794,0.8413,122.775,4.787,4.920,,,,,,,,,,,,
CalCOFI,2105SH,002,,2105_002u,04-May-2021 21:03:19,04-May-2021 13:03:19,32.91030,-117.39490,093.3 028.0,093.3,028.0,461.000,464.792,,7.0316,,7.0331,,7.0324,34.3202,,34.3214,34.3238,,34.3257,34.3236,0.3284,,0.4095,0.4442,0.3292,,0.4004,0.4398,0.4420,14.282,17.4292,21.4936,14.315,20.5531,21.3963,21.4450,0.0408,,,,0.6006,,0.0000,,26.8850,,26.8876,,,,,,,,,,,6.9876,6.9891,0.8413,123.283,4.846,4.858,,,,,,,,,,,,
CalCOFI,2105SH,002,,2105_002u,04-May-2021 21:03:20,04-May-2021 13:03:20,32.91030,-117.39490,093.3 028.0,093.3,028.0,460.000,463.782,,7.0322,,7.0378,,7.0350,34.3213,,34.3225,34.3231,,34.3250,34.3238,0.3285,,0.4096,0.4443,0.3328,,0.4041,0.4435,0.4439,14.285,17.4323,21.4957,14.472,20.5563,21.5065,21.5011,0.0412,,,,0.6012,,0.0000,,26.8857,,26.8863,,,,,,,,,,,6.9883,6.9938,0.8413,123.194,4.847,4.911,,,,,,,,,,,,